This demonstration page uses our WeatherBlox Daily Observations layout. Learn more.

Left ArrowRight Arrow

Hourly Observations for May 18, 2015

Temp ( °F °C ) Dew Point ( °F °C ) Humidity (%) Winds ( mph kmh ) Pressure ( in mb ) Visibility ( mi km ) Precip ( " mm )
12:53 am 00:53 Partly Cloudy 62 16.7 50 10 65 65 Calm 29.96 1015 10 16 0.00 0.00
1:53 am 01:53 Partly Cloudy 62 16.7 53 11.7 73 73 Calm 29.96 1015 10 16 0.00 0.00
2:53 am 02:53 Mostly Clear 60 15.6 53 11.7 78 78 NNE 5 7 29.96 1015 10 16 0.00 0.00
3:53 am 03:53 Cloudy 61 16.1 52 11.1 72 72 NNE 3 6 29.96 1015 10 16 0.00 0.00
4:53 am 04:53 Mostly Cloudy 61 16.1 53 11.7 75 75 Calm 29.96 1015 10 16 0.00 0.00
5:53 am 05:53 Cloudy 61 16.1 51 10.6 70 70 SSW 3 6 29.97 1015 10 16 0.00 0.00
6:53 am 06:53 Cloudy 60 15.6 50 10 70 70 S 8 13 29.98 1015 10 16 0.00 0.00
7:53 am 07:53 Cloudy 60 15.6 50 10 70 70 SSE 6 9 29.99 1016 10 16 0.00 0.00
8:53 am 08:53 Cloudy 61 16.1 51 10.6 70 70 Calm 30.00 1016 10 16 0.00 0.00
9:53 am 09:53 Cloudy 63 17.2 51 10.6 65 65 Calm 30.00 1016 10 16 0.00 0.00
10:53 am 10:53 Cloudy 65 18.3 51 10.6 61 61 VRB 3 6 29.99 1016 10 16 0.00 0.00
11:53 am 11:53 Mostly Cloudy 70 21.1 49 9.4 47 47 VRB 3 6 29.98 1015 10 16 0.00 0.00
12:53 pm 12:53 Mostly Sunny 73 22.8 48 8.9 41 41 Calm 29.96 1015 10 16 0.00 0.00
1:53 pm 13:53 Sunny 76 24.4 46 7.8 35 35 VRB 6 9 29.93 1014 10 16 0.00 0.00
2:53 pm 14:53 Sunny 77 25 42 5.6 29 29 SE 6 9 29.93 1013 10 16 0.00 0.00
3:53 pm 15:53 Sunny 79 26.1 42 5.6 27 27 SW 7 11 29.91 1013 10 16 0.00 0.00
4:53 pm 16:53 Mostly Cloudy 80 26.7 42 5.6 26 26 S 10 17 29.90 1012 10 16 0.00 0.00
5:53 pm 17:53 Sunny 79 26.1 43 6.1 28 28 S 13 20 29.90 1013 10 16 0.00 0.00
6:53 pm 18:53 Sunny 76 24.4 45 7.2 33 33 S 12 19 29.91 1013 10 16 0.00 0.00
7:53 pm 19:53 Mostly Sunny 74 23.3 46 7.8 37 37 S 7 11 29.93 1013 10 16 0.00 0.00
8:53 pm 20:53 Cloudy 73 22.8 45 7.2 37 37 S 10 17 29.94 1014 10 16 0.00 0.00
9:53 pm 21:53 Cloudy with Light Rain 67 19.4 53 11.7 61 61 NW 7 11 29.99 1016 10 16 0.00 0.03
10:53 pm 22:53 Cloudy 68 20 51 10.6 55 55 N 7 11 29.98 1015 10 16 0.00 0.03
11:53 pm 23:53 Cloudy 66 18.9 52 11.1 61 61 NNW 5 7 29.99 1016 10 16 0.00 0.00

Powered by AerisWeather